Content
SEND FEEDBACK

Daily
Averages
Monthly
Summary
United States of America

ST. LOUIS - SAINT LOUIS UNIVERSITY, MISSOURI


Home > North America > United States > Missouri
Elevation: 580 feet     Latitude: 38 38N     Longitude: 090 14W

WEATHER
 
SELECT A DAY
Number of Records: 186,509;   Date Range: 1/1/95 - 9/20/14
 
SHARE

PRINT THIS DATA

[ ← Previous Day ]
WEATHER ALMANAC - MARCH 31, 2013
[ Next Day → ]
[ °C ]   °F
Weather ElementAverageHighLow
Temperature53.9 °F66.9 °F (3:53 pm)46.4 °F (3:40 am)
Dewpoint43.6 °F48.9 °F (10:53 am)35.1 °F (3:53 pm)
Humidity73.4 %100 % (3:40 am)31 % (3:53 pm)
Barometer29.89 in29.93 in (10:53 pm)29.85 in (3:53 pm)
Wind Speed5.2 mph15 mph (3:53 pm)
Wind Gust25.3 mph (3:53 pm)
Weather ElementAverage
Visibility5.9 mi
Wind DirectionSSE (170.3 °)

Weather ElementTotal
Precipitation---
Heating Degree Days8.3 (Base 65)
Growing Degree Days6.7 (Base 50)
Averaged from 31 records on March 31, 2013
WEATHER CONDITIONS BREAKOUT
WIND DIRECTION BREAKOUT
WEATHER BY HOUR - MARCH 31, 2013
[ °C ]   °F
Local TimeTemperatureDewpointHumidityBarometerVisibilityWind DirectionWind SpeedGust SpeedPrecipitationEventsConditions
12:53 AM48.0 °F46.0 °F93 %29.91 in3.0 miCalmOvercast
1:53 AM48.0 °F46.0 °F93 %29.90 in3.0 miCalmOvercast
2:04 AM48.2 °F46.4 °F93 %29.90 in2.5 miSW (220°)3.5 mphOvercast
2:13 AM48.2 °F46.4 °F93 %29.89 in2.5 miWSW (250°)3.5 mphOvercast
2:53 AM48.0 °F46.0 °F93 %29.89 in2.5 miSW (230°)5.8 mphOvercast
3:40 AM46.4 °F46.4 °F100 %29.88 in2.0 miCalmMostly Cloudy
3:53 AM46.9 °F45.0 °F93 %29.88 in2.0 miCalmMostly Cloudy
4:16 AM46.4 °F44.6 °F93 %29.88 in1.8 miCalmOvercast
4:27 AM46.4 °F44.6 °F93 %29.87 in1.8 miNW (320°)3.5 mphOvercast
4:47 AM46.4 °F46.4 °F100 %29.88 in2.0 miCalmOvercast
4:53 AM46.9 °F46.0 °F97 %29.88 in2.0 miCalmOvercast
5:16 AM48.2 °F46.4 °F93 %29.88 in3.0 miCalmOvercast
5:53 AM48.0 °F46.0 °F93 %29.89 in5.0 miWNW (300°)5.8 mphMostly Cloudy
6:53 AM48.9 °F46.0 °F90 %29.91 in5.0 miWNW (290°)5.8 mphMostly Cloudy
7:53 AM48.9 °F46.0 °F90 %29.92 in4.0 miNW (310°)4.6 mphOvercast
8:53 AM48.9 °F46.9 °F93 %29.91 in4.0 miCalmPartly Cloudy
9:44 AM51.8 °F48.2 °F88 %29.91 in4.0 miCalmPartly Cloudy
9:53 AM52.0 °F48.0 °F86 %29.91 in5.0 miWest (270°)3.5 mphScattered Clouds
10:53 AM57.0 °F48.9 °F74 %29.90 in7.0 miCalmPartly Cloudy
11:53 AM60.1 °F48.0 °F64 %29.88 in10.0 miCalmClear
12:53 PM64.0 °F46.0 °F52 %29.88 in10.0 miWNW (290°)8.1 mph16.1 mphScattered Clouds
1:53 PM64.9 °F39.9 °F40 %29.87 in10.0 miWNW (290°)6.9 mphClear
2:53 PM66.0 °F37.0 °F34 %29.86 in10.0 miVariable6.9 mph16.1 mphPartly Cloudy
3:53 PM66.9 °F35.1 °F31 %29.85 in10.0 miNW (310°)15.0 mph25.3 mph0.00 inPartly Cloudy
4:53 PM66.0 °F36.0 °F33 %29.85 in10.0 miNW (310°)12.7 mphScattered Clouds
5:53 PM64.9 °F35.1 °F33 %29.85 in10.0 miWNW (300°)11.5 mph19.6 mphScattered Clouds
6:53 PM63.0 °F37.9 °F40 %29.86 in10.0 miNW (310°)13.8 mphOvercast
7:53 PM60.1 °F39.0 °F46 %29.87 in10.0 miNW (310°)11.5 mphMostly Cloudy
8:53 PM59.0 °F39.9 °F49 %29.89 in10.0 miNW (310°)15.0 mphMostly Cloudy
9:53 PM57.0 °F39.9 °F53 %29.92 in10.0 miNNW (330°)9.2 mphMostly Cloudy
10:53 PM55.0 °F37.9 °F53 %29.93 in10.0 miNNW (330°)15.0 mphMostly Cloudy
Hourly data recorded from KCPS, located miles away from St. Louis - Saint Louis University, Missouri







STORIES FROM OUR PARTNERS